GW3215 Weather Reports


time (UTC)temp
C
wind
direction
speed
KPH
gust
KPH
rain 1hr
cm
rain 24hr
cm
rain mn
cm
humidity
%
barometer
mb
20260505184504 26 265 3.2 17.7 0.00 0.00 0.00 40 1015.3
20260505183012 26 147 1.6 11.3 0.00 0.00 0.00 38 1015.4
20260505181516 26 214 3.2 16.1 0.00 0.00 0.00 37 1015.7
20260505180019 26 299 3.2 17.7 0.00 0.00 0.00 40 1016.1
20260505174508 26 238 3.2 16.1 0.00 0.00 0.00 37 1016.4
20260505173025 26 248 3.2 16.1 0.00 0.00 0.00 41 1016.3
20260505171518 26 103 3.2 12.9 0.00 0.00 0.00 41 1016.3
20260505170025 25 211 3.2 12.9 0.00 0.00 0.00 38 1016.2
20260505164543 25 249 4.8 14.5 0.00 0.00 0.00 41 1016.3
20260505163012 25 248 3.2 14.5 0.00 0.00 0.00 39 1016.7
20260505161510 24 201 3.2 16.1 0.00 0.00 0.00 42 1016.6
20260505153031 23 263 1.6 12.9 0.00 0.00 0.00 54 1017.0
20260505151508 22 244 3.2 8.0 0.00 0.00 0.00 57 1017.3
20260505124518 13 217 3.2 11.3 0.00 0.00 0.00 92 1016.4
20260505123019 12 159 1.6 6.4 0.00 0.00 0.00 92 1016.4
20260505121522 11 152 0.0 4.8 0.00 0.00 0.00 92 1016.4
20260505120026 11 214 0.0 0.0 0.00 0.00 0.00 91 1016.3
20260505114533 11 214 0.0 0.0 0.00 0.00 0.00 90 1015.9
20260505113028 10 214 0.0 1.6 0.00 0.00 0.00 90 1015.9
20260505111520 10 214 0.0 3.2 0.00 0.00 0.00 89 1015.9
20260505101503 10 226 0.0 8.0 0.00 0.00 0.00 89 1015.6
20260505100004 10 200 1.6 8.0 0.00 0.00 0.00 89 1015.5
20260505094505 10 161 0.0 3.2 0.00 0.00 0.00 87 1015.5
20260505093008 10 219 0.0 1.6 0.00 0.00 0.00 85 1015.5
20260505091512 11 233 0.0 0.0 0.00 0.00 0.00 85 1015.4
20260505090003 11 233 0.0 1.6 0.00 0.00 0.00 84 1015.3
20260505084504 11 233 0.0 1.6 0.00 0.00 0.00 83 1015.3
20260505083006 11 233 0.0 1.6 0.00 0.00 0.00 82 1015.2
20260505081512 12 229 0.0 6.4 0.00 0.00 0.00 82 1015.2
20260505080017 12 228 0.0 11.3 0.00 0.00 0.00 82 1015.2
20260505074503 11 182 1.6 4.8 0.00 0.00 0.00 82 1015.0
20260505073005 11 205 1.6 8.0 0.00 0.00 0.00 83 1015.0
20260505071512 11 229 1.6 6.4 0.00 0.00 0.00 84 1015.0
20260505070012 10 238 0.0 6.4 0.00 0.00 0.00 87 1014.9
20260505064518 10 190 1.6 8.0 0.00 0.00 0.00 88 1014.9
20260505063026 10 192 0.0 1.6 0.00 0.00 0.00 88 1014.9
20260505061522 10 192 0.0 1.6 0.00 0.00 0.00 87 1015.0
20260505060008 10 192 0.0 1.6 0.00 0.00 0.00 86 1015.0
20260505054522 10 192 0.0 1.6 0.00 0.00 0.00 85 1015.2
20260505053019 10 192 0.0 0.0 0.00 0.00 0.00 83 1015.1
20260505051529 11 192 0.0 0.0 0.00 0.00 0.00 84 1015.3
20260505041521 12 192 0.0 0.0 0.00 0.00 0.00 81 1015.4
20260505040024 12 192 0.0 0.0 0.00 0.00 0.00 80 1015.5
20260505034507 12 192 0.0 0.0 0.00 0.00 0.00 80 1015.5
20260505033027 12 192 0.0 0.0 0.00 0.00 0.00 81 1015.5
20260505031520 12 192 0.0 0.0 0.00 0.00 0.00 78 1015.5
20260505030024 13 192 0.0 0.0 0.00 0.00 0.00 77 1015.5
20260505024549 13 192 0.0 0.0 0.00 0.00 0.00 77 1015.6
20260505023035 13 192 0.0 0.0 0.00 0.00 0.00 77 1015.4
20260505021529 14 192 0.0 0.0 0.00 0.00 0.00 76 1015.4
20260505020020 15 192 0.0 0.0 0.00 0.00 0.00 74 1015.3
20260505014526 15 192 0.0 0.0 0.00 0.00 0.00 72 1015.2
20260505013010 15 192 0.0 1.6 0.00 0.00 0.00 70 1015.0
20260505011518 16 192 0.0 1.6 0.00 0.00 0.00 69 1014.7
20260505010019 16 200 0.0 1.6 0.00 0.00 0.00 66 1014.7
20260505004510 17 200 0.0 1.6 0.00 0.00 0.00 63 1014.4
20260505003006 18 200 0.0 1.6 0.00 0.00 0.00 63 1014.2
20260505001513 19 200 0.0 0.0 0.00 0.00 0.00 61 1014.3
20260505000015 20 200 0.0 1.6 0.00 0.00 0.00 59 1014.1
20260504234521 20 213 0.0 1.6 0.00 0.00 0.00 57 1014.0
20260504233012 21 205 0.0 1.6 0.00 0.00 0.00 56 1014.0
20260504231510 22 198 0.0 3.2 0.00 0.00 0.00 55 1014.1
20260504230014 22 209 0.0 3.2 0.00 0.00 0.00 48 1014.0
20260504224517 23 210 1.6 8.0 0.00 0.00 0.00 42 1014.0
20260504223029 23 161 0.0 8.0 0.00 0.00 0.00 42 1014.2
20260504221508 23 222 0.0 8.0 0.00 0.00 0.00 44 1014.2
20260504220010 24 175 1.6 9.7 0.00 0.00 0.00 45 1014.2
20260504214515 24 240 0.0 11.3 0.00 0.00 0.00 43 1014.2
20260504213022 25 240 1.6 9.7 0.00 0.00 0.00 36 1014.0
20260504211525 25 159 1.6 9.7 0.00 0.00 0.00 36 1014.0
20260504210008 25 235 1.6 9.7 0.00 0.00 0.00 37 1014.1
20260504204517 26 348 1.6 9.7 0.00 0.00 0.00 35 1014.2
20260504203020 27 200 3.2 11.3 0.00 0.00 0.00 29 1014.2
20260504201521 26 216 1.6 8.0 0.00 0.00 0.00 31 1014.1
20260504200024 26 136 1.6 9.7 0.00 0.00 0.00 29 1014.3
20260504194513 26 126 1.6 8.0 0.00 0.00 0.00 35 1014.6
20260504193015 26 304 1.6 12.9 0.00 0.00 0.00 33 1014.8
20260504191520 26 180 1.6 11.3 0.00 0.00 0.00 35 1015.0
20260504190029 26 173 3.2 11.3 0.00 0.00 0.00 33 1015.3